This is the latest recevied weather packets stored in our database for station/object 9M2MIN-2. If no packets are shown the sender has not sent any weather packets the latest 1 day(s).
| Time | Temp. | Humidity | Pressure | Rain* | Wind** | Luminosity | Snow |
|---|---|---|---|---|---|---|---|
| 1778077892 | 30° C | 71% | 1007.9 hPa | - | - | - | - |
| 1778076992 | 30° C | 70% | 1008 hPa | - | - | - | - |
| 1778076092 | 30° C | 70% | 1007.7 hPa | - | - | - | - |
| 1778075192 | 30° C | 70% | 1007.8 hPa | - | - | - | - |
| 1778068891 | 30° C | 71% | 1006.1 hPa | - | - | - | - |
| 1778067991 | 30.56° C | 71% | 1005.7 hPa | - | - | - | - |
| 1778061689 | 30.56° C | 73% | 1005.4 hPa | - | - | - | - |
| 1778060793 | 30.56° C | 73% | 1005.6 hPa | - | - | - | - |
| 1778059893 | 30.56° C | 73% | 1005.4 hPa | - | - | - | - |
| 1778058993 | 30.56° C | 72% | 1005.9 hPa | - | - | - | - |
| 1778056292 | 31.11° C | 70% | 1004.4 hPa | - | - | - | - |
| 1778054492 | 31.11° C | 70% | 1005 hPa | - | - | - | - |
| 1778053592 | 31.11° C | 71% | 1005.3 hPa | - | - | - | - |
| 1778052692 | 31.11° C | 70% | 1005.4 hPa | - | - | - | - |
| 1778051792 | 31.11° C | 70% | 1005.6 hPa | - | - | - | - |
| 1778050892 | 30.56° C | 71% | 1005.8 hPa | - | - | - | - |
| 1778047290 | 30° C | 82% | 1007.2 hPa | - | - | - | - |
| 1778046390 | 30° C | 75% | 1007.6 hPa | - | - | - | - |
| 1778045490 | 30° C | 74% | 1008 hPa | - | - | - | - |
| 1778044590 | 30° C | 75% | 1008.2 hPa | - | - | - | - |
| 1778043690 | 30° C | 73% | 1008.5 hPa | - | - | - | - |
| 1778042790 | 30° C | 74% | 1008.7 hPa | - | - | - | - |
| 1778040989 | 30.56° C | 69% | 1008.5 hPa | - | - | - | - |
| 1778040089 | 30° C | 71% | 1008.6 hPa | - | - | - | - |
| 1778039240 | 30° C | 71% | 1008.8 hPa | - | - | - | - |
* Rain since midnight (hover to see other rain measurements)
** Current wind speed in m/s (hover to see current wind gust speed)